Retour au catalogue

LEMUR 2 LANGER2SPACE

ActifScienceSSO
NORAD 63358·PAYLOAD·🇺🇸 United States

Lancé Mar 26, 2025 depuis Rocket Lab Launch Complex 1

Loading…

Prochains Passages (prochaines 24 heures)

TLE

FraisSource: Space-Track

Époque: Sep 14, 2026, 09:42 UTC

1 63358U 25061H   26257.40480889  .00003491  00000-0  19093-3 0  9994
2 63358  97.5721 232.6312 0015216 314.4885  45.5102 15.14850194 81122

Suivez LEMUR 2 LANGER2SPACE en temps réel avec AllMySat

Download on the App Store